#timestamp,LO_Frequency,Hit,StdDev 
1710550815.5,286046998.1,N
1710550835.4,286046998.2,N
1710550855.2,286046998.8,N
1710550875.0,286046996.9,N
1710550875.9,286046996.9,N
1710550895.8,286046999.6,N
1710550915.6,286046999.3,N
1710550935.4,286046998.4,N
1710550955.3,286047000.4,N
1710550975.1,286047000.7,N
1710550995.9,286047001.1,N
1710551015.7,286046999.8,N
1710551035.5,286046999.7,N
1710551055.4,286047001.2,N
1710551075.2,286046998.6,N
1710551095.1,286047001.1,N
1710551096.0,286047001.1,N
1710551115.8,286046998.1,N
1710551135.6,286046999.0,N
1710551155.5,286046998.9,N
1710551175.3,286046999.6,N
1710551195.1,286046999.0,N
1710551215.9,286047000.7,N
1710551235.7,286046998.4,N
1710551255.6,286046998.6,N
1710551275.4,286046998.8,N
1710551295.2,286047001.2,N
1710551315.1,286046998.6,N
1710551316.0,286046998.6,N
1710551335.8,286047000.0,N
1710551355.7,286047001.0,N
1710551375.5,286047001.2,N
1710551395.3,286046999.4,N
1710551415.2,286046997.3,N
1710551435.0,286046996.6,N
1710551435.9,286046996.6,N
1710551455.8,286046999.2,N
1710551475.6,286046999.1,N
1710551495.4,286046999.1,N
1710551515.3,286046999.3,N
1710551535.1,286046999.0,N
1710551555.8,286047001.1,N
1710551575.7,286047000.5,N
1710551595.5,286047000.9,N
1710551615.4,286047000.6,N
1710551635.2,286047000.0,N
1710551655.0,286047000.8,N
1710551655.9,286047000.8,N
1710551675.8,286047000.4,N
1710551695.6,286047002.8,N
1710551715.5,286047000.2,N
1710551735.3,286046999.8,N
1710551755.1,286047000.9,N
1710551775.9,286047002.4,N
1710551795.7,286046999.8,N
1710551815.5,286047002.1,N
1710551835.4,286047002.5,N
1710551855.2,286047002.1,N
1710551875.1,286047000.2,N
1710551876.0,286047000.2,N
1710551895.8,286046999.7,N
1710551915.6,286047002.1,N
1710551935.5,286047001.5,N
1710551955.3,286047001.5,N
1710551975.1,286047001.4,N
1710551995.9,286047001.8,N
1710552015.7,286047004.4,Y
1710552035.6,286047002.8,P
1710552055.4,286047002.2,N
1710552075.2,286047001.9,N
1710552095.1,286047002.5,Y
1710552096.0,286047002.5,P
1710552115.8,286046998.3,P
1710552135.7,286046998.8,N
1710552155.5,286046999.1,N
1710552175.3,286046998.8,N
1710552195.2,286046998.8,N
1710552215.0,286046998.3,N
1710552215.9,286046998.3,N
1710552235.7,286046998.6,N
1710552255.6,286046999.3,N
1710552275.4,286046999.0,N
1710552295.3,286046996.6,N
1710552315.1,286046997.3,N
1710552335.8,286046997.1,N
1710552355.7,286046997.0,N
1710552375.5,286046996.6,N
1710552395.4,286046996.7,N
1710552415.2,286046997.1,N
1710552435.0,286046995.4,N
1710552435.9,286046995.4,N
1710552455.8,286046997.9,N
1710552475.6,286046996.8,N
1710552495.4,286046995.3,N
1710552515.3,286046995.2,N
1710552535.1,286046995.3,N
1710552555.9,286046995.0,N
1710552575.7,286046995.0,N
1710552595.5,286046995.0,N
1710552615.4,286046997.9,N
1710552635.2,286046997.5,N
1710552655.0,286046995.1,N
1710552656.0,286046995.1,Y
1710552675.8,286046998.4,P
1710552695.6,286046998.8,N
1710552715.5,286046999.3,N
1710552735.3,286046999.4,N
1710552755.1,286046998.9,N
1710552775.9,286046999.2,N
1710552795.7,286046999.5,N
1710552815.6,286046999.0,N
1710552835.4,286046998.3,N
1710552855.2,286046996.8,Y
1710552875.1,286046999.4,P
1710552876.0,286046999.4,N
1710552895.8,286046999.4,N
1710552915.6,286046998.1,Y
1710552935.5,286047001.1,P
1710552955.3,286047000.7,N
1710552975.2,286046999.7,N
1710552995.9,286047002.8,Y
1710553045.8,286047001.7,E
1710553055.7,286047002.7,N
1710553075.5,286047000.4,P
1710553095.4,286047000.8,N
1710553115.2,286047000.1,N
1710553135.0,286047001.2,N
1710553135.9,286047001.2,N
1710553155.8,286047001.2,N
1710553175.6,286046999.2,N
1710553195.5,286046997.3,N
1710553215.3,286046996.5,N
1710553235.1,286046998.9,N
1710553255.9,286046998.5,N
1710553275.7,286047001.2,N
1710553295.6,286046998.9,N
1710553315.4,286046998.6,N
1710553335.2,286047001.2,N
1710553355.1,286046999.0,N
1710553356.0,286046999.0,N
1710553375.8,286047000.8,N
1710553395.6,286046998.6,N
1710553415.5,286046998.5,N
1710553435.3,286046998.4,N
1710553455.2,286046999.0,N
1710553475.9,286046999.5,N
1710553495.7,286046998.9,N
1710553515.6,286046999.2,N
1710553535.4,286046998.6,N
1710553555.3,286046998.6,N
1710553575.1,286046999.3,N
1710553576.0,286046999.3,N
1710553595.8,286046999.3,N
1710553615.7,286046999.2,N
1710553635.5,286046996.5,Y
1710553655.4,286046996.7,P
1710553675.2,286046998.2,N
1710553695.0,286046998.3,N
1710553695.9,286046998.3,N
1710553715.8,286046999.2,N
1710553735.6,286046998.3,N
1710553755.4,286046999.4,N
1710553775.3,286047000.9,N
1710553795.1,286047001.1,N
1710553815.9,286047000.8,N
1710553835.7,286046998.7,N
1710553855.5,286047001.2,N
1710553875.4,286046998.7,N
1710553895.2,286047000.0,N
1710553915.0,286047000.2,N
1710553915.9,286047000.2,N
1710553935.8,286047000.9,N
1710553955.6,286047001.2,N
1710553975.5,286046998.5,N
1710553995.3,286046999.0,N
1710554015.1,286046997.1,N
1710554035.9,286046997.2,N
1710554055.7,286046997.3,N
1710554075.5,286046997.7,N
1710554095.4,286046996.2,N
1710554115.2,286046996.0,N
1710554135.1,286046996.0,N
1710554136.0,286046996.0,N
1710554155.8,286046996.3,N
1710554175.6,286046994.9,Y
1710554195.5,286046999.6,P
1710554215.3,286046999.0,N
1710554235.1,286046998.8,P
1710554255.9,286046998.5,Y
1710554275.7,286047000.4,P
1710554295.6,286047000.0,N
1710554315.4,286047001.0,N
1710554335.2,286047001.1,N
1710554355.1,286046999.8,N
1710554356.0,286046999.8,N
1710554375.8,286047000.9,N
1710554395.6,286047001.1,N
